Location: *
(47.2969°N, 10.2930°E)
Time: 02:43:18
(UTC+00:00)

Cosmos 1174 - Pass Details

Date: 09 April 2020
Orbit: 370 x 1148 km, 66.1° (Epoch: 03 June)

Event Time Altitude Azimuth Distance (km) Brightness Sun altitude
Rises 19:54:29 0° 325° (NW) 2,650 8.6 -18.5°
Reaches altitude 10° 19:56:27 10° 326° (NW) 1,855 7.6 -18.7°
Maximum altitude 20:00:37 84° 55° (NE) 664 4.1 -19.3°
Enters shadow 20:02:19 41° 140° (SE) 998 4.6 -19.5°
